Content
SEND FEEDBACK

Daily
Averages
Monthly
Summary
United States of America

EL PASO, TEXAS


Home > North America > United States > Texas
Elevation: 1194 meters     Latitude: 31 48N     Longitude: 106 24W

WEATHER
 
SELECT A DAY
Number of Records: 171,933;   Date Range: 1/1/95 - 7/27/14
 
SHARE

PRINT THIS DATA

[ ← Previous Day ]
WEATHER ALMANAC - 1 OCTOBER, 2013
[ Next Day → ]
[ °F ]   °C
Weather ElementAverageHighLow
Temperature26 °C31.1 °C (2:51 pm)16.7 °C (7:51 am)
Dewpoint-4.4 °C0.6 °C (7:51 am)-10 °C (2:51 pm)
Humidity14.2 %34 % (7:51 am)6 % (2:51 pm)
Barometer1007.8 hPa1009.8 hPa (7:51 am)1006.1 hPa (2:51 am)
Wind Speed16.7 km/h37 km/h (2:51 am)
Wind Gust50.1 km/h (2:51 am)
Weather ElementAverage
Visibility16.1 km
Wind DirectionSSW (217 °)

Weather ElementTotal
Precipitation---
Cooling Degree Days5.6 (Base 18.3)
Growing Degree Days13.9 (Base 10)
Averaged from 23 records on 1 October, 2013
WEATHER CONDITIONS BREAKOUT
WIND DIRECTION BREAKOUT
WEATHER BY HOUR - 1 OCTOBER, 2013
[ °F ]   °C
Local TimeTemperatureDewpointHumidityBarometerVisibilityWind DirectionWind SpeedGust SpeedPrecipitationEventsConditions
1:51 AM25.6 °C-5 °C13 %1006.4 hPa16.1 kmWest (270°)16.7 km/h42.6 km/hClear
2:51 AM25.6 °C-6.1 °C12 %1006.1 hPa16.1 kmWest (280°)37 km/h50.1 km/hClear
3:51 AM22.8 °C-4.4 °C16 %1006.8 hPa16.1 kmVariable5.6 km/hClear
4:51 AM22.2 °C-3.9 °C17 %1007.1 hPa16.1 kmSSE (160°)13 km/hClear
5:51 AM21.7 °C-3.3 °C19 %1007.8 hPa16.1 kmSSE (160°)7.4 km/hClear
6:51 AM19.4 °C-2.8 °C22 %1008.5 hPa16.1 kmCalmClear
7:51 AM16.7 °C0.6 °C34 %1009.8 hPa16.1 kmVariable7.4 km/hClear
8:51 AM24.4 °C-1.7 °C18 %1009.5 hPa16.1 kmNNE (20°)11.1 km/hClear
9:51 AM27.8 °C-3.3 °C13 %1009.8 hPa16.1 kmWNW (300°)27.8 km/hClear
10:51 AM28.3 °C-3.3 °C13 %1009.5 hPa16.1 kmWNW (290°)27.8 km/hClear
11:51 AM28.9 °C-2.8 °C13 %1009.5 hPa16.1 kmWNW (300°)27.8 km/h38.9 km/hClear
12:51 PM29.4 °C-1.7 °C13 %1008.8 hPa16.1 kmWest (270°)25.9 km/hClear
1:51 PM30.6 °C-2.8 °C11 %1007.5 hPa16.1 kmWNW (290°)18.5 km/h37 km/hClear
2:51 PM31.1 °C-10 °C6 %1006.8 hPa16.1 kmWNW (290°)31.5 km/h38.9 km/hClear
3:51 PM31.1 °C-7.8 °C8 %1006.8 hPa16.1 kmWest (270°)29.6 km/h35.2 km/hClear
4:51 PM31.1 °C-6.7 °C8 %1006.4 hPa16.1 kmWNW (290°)20.4 km/h31.5 km/hClear
5:51 PM30.6 °C-6.1 °C9 %1006.8 hPa16.1 kmWNW (290°)13 km/hClear
6:51 PM28.3 °C-6.7 °C10 %1007.5 hPa16.1 kmWest (260°)16.7 km/hClear
7:51 PM27.2 °C-7.2 °C10 %1008.5 hPa16.1 kmWest (270°)13 km/hClear
8:51 PM26.1 °C-5.6 °C12 %1008.1 hPa16.1 kmWNW (300°)9.3 km/hClear
9:51 PM25.6 °C-5.6 °C12 %1007.8 hPa16.1 kmWest (280°)7.4 km/hClear
10:51 PM23.9 °C-4.4 °C15 %1008.1 hPa16.1 kmWest (260°)9.3 km/hClear
11:51 PM19.4 °C-2.2 °C23 %1008.5 hPa16.1 kmSE (140°)7.4 km/hClear
Hourly data recorded from KELP, located 0 kilometers away from El Paso, Texas







STORIES FROM OUR PARTNERS